TimeCDT,TemperatureF,Dew PointF,Humidity,Sea Level PressureIn,VisibilityMPH,Wind Direction,Wind SpeedMPH,Gust SpeedMPH,PrecipitationIn,Events,Conditions,WindDirDegrees,DateUTC
12:15 AM,41.0,34.7,78,30.28,10.0,North,5.8,-,N/A,,Clear,10,2013-05-24 05:15:00
12:35 AM,40.8,34.7,79,30.28,10.0,North,8.1,-,N/A,,Clear,10,2013-05-24 05:35:00
12:55 AM,40.5,34.7,80,30.28,10.0,North,5.8,-,N/A,,Clear,10,2013-05-24 05:55:00
1:15 AM,40.6,34.3,78,30.28,10.0,North,6.9,-,N/A,,Clear,10,2013-05-24 06:15:00
1:35 AM,40.5,34.2,78,30.28,10.0,North,6.9,-,N/A,,Clear,10,2013-05-24 06:35:00
1:55 AM,40.3,34.7,80,30.29,10.0,North,3.5,-,N/A,,Clear,360,2013-05-24 06:55:00
2:15 AM,40.3,34.7,80,30.30,10.0,Calm,Calm,-,N/A,,Clear,0,2013-05-24 07:15:00
2:35 AM,40.1,34.7,81,30.30,10.0,North,5.8,-,N/A,,Clear,360,2013-05-24 07:35:00
2:55 AM,40.1,34.7,81,30.30,10.0,North,4.6,-,N/A,,Clear,360,2013-05-24 07:55:00
3:15 AM,39.7,34.9,83,30.30,10.0,North,4.6,-,N/A,,Clear,10,2013-05-24 08:15:00
3:35 AM,39.7,35.1,83,30.31,10.0,NNW,4.6,-,N/A,,Clear,340,2013-05-24 08:35:00
3:55 AM,39.6,35.2,85,30.32,10.0,NNW,4.6,-,N/A,,Clear,340,2013-05-24 08:55:00
4:15 AM,39.6,35.2,85,30.32,10.0,NNW,4.6,-,N/A,,Clear,340,2013-05-24 09:15:00
4:35 AM,39.4,35.1,84,30.33,10.0,WNW,3.5,-,N/A,,Clear,300,2013-05-24 09:35:00
4:55 AM,37.9,34.9,89,30.33,10.0,NW,3.5,-,N/A,,Clear,320,2013-05-24 09:55:00
5:15 AM,37.8,34.7,89,30.34,10.0,WNW,3.5,-,N/A,,Clear,300,2013-05-24 10:15:00
5:35 AM,37.6,34.7,89,30.35,10.0,NW,4.6,-,N/A,,Clear,320,2013-05-24 10:35:00
5:55 AM,38.3,34.5,86,30.35,10.0,NNW,3.5,-,N/A,,Clear,340,2013-05-24 10:55:00
6:15 AM,39.6,34.9,83,30.36,10.0,Calm,Calm,-,N/A,,Clear,0,2013-05-24 11:15:00
6:35 AM,40.8,34.9,79,30.37,10.0,Calm,Calm,-,N/A,,Clear,0,2013-05-24 11:35:00
6:55 AM,42.6,35.1,75,30.37,10.0,North,5.8,-,N/A,,Clear,10,2013-05-24 11:55:00
7:15 AM,43.7,35.8,74,30.38,10.0,North,5.8,-,N/A,,Clear,10,2013-05-24 12:15:00
7:35 AM,44.1,36.0,73,30.39,10.0,NNE,6.9,-,N/A,,Clear,20,2013-05-24 12:35:00
7:55 AM,45.5,36.5,71,30.41,10.0,North,8.1,-,N/A,,Clear,10,2013-05-24 12:55:00
8:15 AM,46.0,36.5,69,30.42,10.0,North,6.9,-,N/A,,Clear,10,2013-05-24 13:15:00
8:35 AM,47.1,37.2,68,30.42,10.0,North,6.9,-,N/A,,Scattered Clouds,360,2013-05-24 13:35:00
8:55 AM,47.8,36.9,66,30.42,10.0,North,8.1,-,N/A,,Clear,360,2013-05-24 13:55:00
9:15 AM,48.7,37.4,65,30.42,10.0,NNE,9.2,-,N/A,,Clear,20,2013-05-24 14:15:00
9:35 AM,49.8,37.8,63,30.42,10.0,North,6.9,-,N/A,,Clear,360,2013-05-24 14:35:00
9:55 AM,50.7,37.6,61,30.42,10.0,NNE,9.2,-,N/A,,Clear,30,2013-05-24 14:55:00
10:15 AM,51.8,38.5,60,30.42,10.0,North,10.4,-,N/A,,Clear,10,2013-05-24 15:15:00
10:35 AM,52.2,37.9,58,30.42,10.0,NNE,9.2,-,N/A,,Clear,30,2013-05-24 15:35:00
10:55 AM,53.2,38.1,57,30.42,10.0,NNE,10.4,-,N/A,,Clear,30,2013-05-24 15:55:00
11:15 AM,54.0,37.9,55,30.42,10.0,NNE,9.2,-,N/A,,Clear,20,2013-05-24 16:15:00
11:35 AM,54.3,37.0,52,30.41,10.0,North,9.2,-,N/A,,Clear,360,2013-05-24 16:35:00
11:55 AM,55.0,37.2,51,30.41,10.0,North,4.6,-,N/A,,Clear,360,2013-05-24 16:55:00
12:15 PM,55.8,36.9,49,30.41,10.0,NE,10.4,16.1,N/A,,Clear,40,2013-05-24 17:15:00
12:35 PM,57.2,39.7,52,30.41,10.0,North,9.2,-,N/A,,Clear,10,2013-05-24 17:35:00
12:55 PM,57.2,39.6,52,30.41,10.0,NE,10.4,-,N/A,,Clear,40,2013-05-24 17:55:00
1:15 PM,58.1,37.8,47,30.41,10.0,NNE,9.2,-,N/A,,Clear,20,2013-05-24 18:15:00
1:35 PM,58.6,38.3,47,30.40,10.0,NE,8.1,-,N/A,,Clear,40,2013-05-24 18:35:00
1:55 PM,58.5,36.5,44,30.40,10.0,NE,8.1,-,N/A,,Clear,40,2013-05-24 18:55:00
2:15 PM,58.8,35.6,42,30.40,10.0,NE,8.1,16.1,N/A,,Clear,40,2013-05-24 19:15:00
2:35 PM,58.5,36.0,43,30.39,10.0,NE,10.4,16.1,N/A,,Clear,40,2013-05-24 19:35:00
2:55 PM,58.8,35.1,41,30.38,10.0,NE,11.5,-,N/A,,Clear,50,2013-05-24 19:55:00
3:15 PM,59.5,35.2,40,30.38,10.0,NE,12.7,-,N/A,,Clear,40,2013-05-24 20:15:00
3:35 PM,59.2,35.4,41,30.37,10.0,NNE,10.4,-,N/A,,Clear,30,2013-05-24 20:35:00
3:55 PM,59.2,34.5,40,30.36,10.0,NE,11.5,17.3,N/A,,Clear,40,2013-05-24 20:55:00
4:15 PM,59.9,37.0,43,30.35,10.0,NE,12.7,18.4,N/A,,Clear,50,2013-05-24 21:15:00
4:35 PM,59.2,34.3,39,30.35,10.0,ENE,10.4,18.4,N/A,,Clear,60,2013-05-24 21:35:00
4:55 PM,59.5,35.2,40,30.34,10.0,ENE,11.5,-,N/A,,Clear,60,2013-05-24 21:55:00
5:15 PM,59.0,33.6,38,30.34,10.0,ENE,8.1,-,N/A,,Clear,60,2013-05-24 22:15:00
5:35 PM,59.0,34.5,40,30.33,10.0,NNE,8.1,-,N/A,,Clear,30,2013-05-24 22:35:00
5:55 PM,58.1,32.0,37,30.33,10.0,NNE,6.9,-,N/A,,Clear,30,2013-05-24 22:55:00
6:15 PM,58.1,32.5,38,30.33,10.0,NNE,5.8,-,N/A,,Clear,30,2013-05-24 23:15:00
6:35 PM,57.2,34.0,42,30.33,10.0,NNE,5.8,-,N/A,,Clear,20,2013-05-24 23:35:00
6:55 PM,56.3,33.4,42,30.32,10.0,NNE,8.1,-,N/A,,Clear,30,2013-05-24 23:55:00
7:15 PM,55.2,32.2,42,30.32,10.0,NE,8.1,-,N/A,,Clear,40,2013-05-25 00:15:00
7:35 PM,53.8,31.6,43,30.34,10.0,NNE,6.9,-,N/A,,Clear,20,2013-05-25 00:35:00
7:55 PM,52.2,31.3,45,30.34,10.0,NNE,5.8,-,N/A,,Clear,30,2013-05-25 00:55:00
8:15 PM,50.0,32.7,52,30.34,10.0,NNE,4.6,-,N/A,,Clear,30,2013-05-25 01:15:00
8:35 PM,49.1,33.4,55,30.34,10.0,NNE,6.9,-,N/A,,Clear,30,2013-05-25 01:35:00
8:55 PM,47.5,33.3,58,30.35,10.0,NNE,4.6,-,N/A,,Clear,20,2013-05-25 01:55:00
9:15 PM,46.6,32.0,57,30.35,10.0,NNE,4.6,-,N/A,,Clear,30,2013-05-25 02:15:00
9:35 PM,45.7,32.0,59,30.36,10.0,NNE,4.6,-,N/A,,Clear,30,2013-05-25 02:35:00
9:55 PM,45.5,32.0,59,30.37,10.0,NNE,3.5,-,N/A,,Clear,20,2013-05-25 02:55:00
10:15 PM,45.0,32.5,62,30.38,10.0,NNE,4.6,-,N/A,,Clear,30,2013-05-25 03:15:00
10:35 PM,44.6,33.1,64,30.38,10.0,NNE,4.6,-,N/A,,Clear,20,2013-05-25 03:35:00
10:55 PM,44.4,33.3,65,30.38,10.0,NNE,3.5,-,N/A,,Clear,20,2013-05-25 03:55:00
11:15 PM,43.7,33.3,67,30.39,10.0,North,3.5,-,N/A,,Clear,10,2013-05-25 04:15:00
11:35 PM,42.8,33.6,70,30.38,10.0,NNE,3.5,-,N/A,,Clear,30,2013-05-25 04:35:00
11:55 PM,42.4,34.3,73,30.38,10.0,NNE,3.5,-,N/A,,Clear,30,2013-05-25 04:55:00